Location: *
(40.6045°S, 106.3560°E)
Time: 04:27:16
(UTC+00:00)

Daily predictions for brighter satellites

Satellite Brightness Start Highest point End
(mag) Time Altitude Azimuth Time Altitude Azimuth Time Altitude Azimuth
ATLAS 5 CENTAUR R/B 3.8 09:57:18 10° NNE 10:03:01 26° ENE 10:08:31 10° ESE
STARLINK-76 4.4 10:01:28 10° NNW 10:04:56 33° NE 10:08:26 10° ESE
Cosmos 2123 Rocket 4.0 09:59:55 10° S 10:06:10 64° E 10:12:22 10° NNE
STARLINK-23 4.3 10:03:05 10° NNW 10:06:34 35° NE 10:10:06 10° ESE
STARLINK-71 4.3 10:03:41 10° NNW 10:07:29 39° NE 10:11:19 10° ESE
Cosmos 2228 Rocket 3.1 10:03:06 10° S 10:07:42 74° E 10:12:10 10° NNE
STARLINK-32 4.3 10:04:38 10° NNW 10:08:09 36° NE 10:11:43 10° ESE
STARLINK-29 4.4 10:05:25 10° SSW 10:08:10 23° SSE 10:10:54 10° E
Cosmos 405 3.8 10:06:32 10° SSE 10:09:42 29° ESE 10:12:50 10° NE
STARLINK-40 4.2 10:06:28 10° NNW 10:10:02 37° NE 10:13:39 10° ESE
Cosmos 2237 Rocket 3.3 10:06:22 10° NNE 10:10:57 26° ENE 10:15:34 10° SE
STARLINK-44 4.2 10:07:50 10° NNW 10:11:24 38° NE 10:15:00 10° ESE
STARLINK-1306 4.3 10:08:47 10° WNW 10:12:57 53° SW 10:17:10 10° SE
STARLINK-1299 4.4 10:08:58 10° WNW 10:13:08 48° SSW 10:17:21 10° SE
STARLINK-37 4.0 10:09:46 10° NNW 10:13:26 44° NE 10:17:07 10° ESE
CZ-4B R/B 4.0 10:09:29 10° SE 10:14:23 32° E 10:19:18 10° NNE
STARLINK-36 4.1 10:11:03 10° NNW 10:14:39 41° NE 10:18:16 10° ESE
STARLINK-1281 4.2 10:11:24 10° WNW 10:15:31 54° SW 10:19:41 10° SE
H-2A R/B 3.9 10:12:49 10° SE 10:16:08 26° E 10:19:26 10° NNE
Cosmos 1743 Rocket 4.3 10:12:09 10° NNW 10:16:28 57° W 10:20:53 10° S
STARLINK-68 3.9 10:12:49 10° NNW 10:16:30 48° NE 10:20:07 11° ESE
USA 234 4.0 10:10:34 10° SE 10:16:49 47° SSW 10:23:03 10° WNW
ADEOS Rocket 3.7 10:09:28 10° NNE 10:17:01 86° WNW 10:24:57 10° SSW
STARLINK-1051 4.5 10:14:03 10° NNW 10:17:53 36° NE 10:21:36 11° ESE
STARLINK-63 3.9 10:14:30 10° NNW 10:18:11 47° NE 10:21:44 11° ESE
STARLINK-35 3.9 10:15:56 10° NNW 10:19:36 46° NE 10:23:03 12° ESE
Cosmos 1484 Rocket 4.3 10:16:20 10° S 10:19:55 36° WSW 10:23:24 10° NW
STARLINK-1310 4.3 10:16:26 10° WNW 10:20:31 49° SSW 10:24:39 10° SE
STARLINK-51 3.8 10:17:42 10° NNW 10:21:25 48° NE 10:24:49 12° ESE
Cosmos 158 Rocket 4.2 10:17:26 10° N 10:22:27 55° ENE 10:27:39 10° SSE
Okean O Rocket 2.4 10:18:38 10° SSE 10:22:42 33° E 10:26:43 10° NNE
STARLINK-30 3.8 10:19:19 10° NNW 10:23:02 50° NE 10:26:23 13° ESE
Sich 1 3.3 10:18:48 10° NNE 10:23:03 51° E 10:27:23 10° SSE
STARLINK-72 3.8 10:21:09 10° NNW 10:24:53 53° NE 10:28:12 13° ESE
STARLINK-1319 4.4 10:21:28 10° WNW 10:25:31 46° SSW 10:29:32 10° SE
Cosmos 1346 Rocket 3.0 10:22:05 10° NNW 10:26:01 75° W 10:30:03 10° S
SL-16 R/B 3.9 10:25:12 10° ENE 10:27:07 12° E 10:28:17 11° E
Cosmos 2112 Rocket 4.1 10:22:20 10° N 10:27:35 62° ENE 10:32:50 10° SSE
STARLINK-1028 4.2 10:23:50 10° NNW 10:27:49 45° NE 10:31:11 14° ESE
STARLINK-59 3.6 10:24:19 10° NW 10:28:06 59° NE 10:31:18 14° ESE
PSLV R/B 4.1 10:25:15 10° S 10:29:28 81° WSW 10:33:32 10° NNW
STARLINK-56 3.6 10:25:58 10° NW 10:29:44 58° NE 10:32:52 15° ESE
Starlink 7 placeholder 2.8 10:26:54 10° SW 10:29:57 76° NW 10:32:49 10° NE
Shenzhou-11 Module 1.6 10:27:22 10° W 10:29:58 68° SSW 10:31:43 18° ESE
STARLINK-73 3.6 10:27:37 10° NW 10:31:25 61° NE 10:34:29 15° ESE
Cosmos 2333 Rocket 2.6 10:25:49 10° NNW 10:31:34 69° WSW 10:37:23 10° SSE
Cosmos 1934 Rocket 4.4 10:26:18 10° NNW 10:32:36 71° W 10:39:03 10° S
STARLINK-1021 4.0 10:28:44 10° NNW 10:32:46 49° NE 10:35:58 16° ESE
STARLINK-38 3.5 10:29:16 10° NW 10:33:04 63° NE 10:36:04 16° ESE
SMAP 4.0 10:29:18 10° SE 10:33:24 28° E 10:37:26 10° NNE
STARLINK-65 3.5 10:30:57 10° NW 10:34:46 66° NE 10:37:42 16° ESE
STARLINK-24 3.6 10:32:35 10° NW 10:36:37 74° NE 10:39:45 17° SE
STARLINK-25 3.4 10:33:09 10° NW 10:36:51 66° NE 10:39:34 18° ESE
STARLINK-53 3.5 10:33:12 10° NW 10:37:06 73° NE 10:40:02 17° SE
Cosmos 2278 Rocket 2.6 10:32:07 10° S 10:37:32 41° ESE 10:42:52 10° NE
STARLINK-1019 3.9 10:33:40 10° NNW 10:37:44 55° NE 10:40:45 17° ESE
Cosmos 1844 Rocket 4.2 10:33:11 10° SW 10:38:29 41° WNW 10:43:46 10° N
Meteor 1-10 Rocket 4.2 10:33:15 10° S 10:38:57 81° E 10:44:42 10° NNE
STARLINK-1012 3.8 10:38:35 10° NW 10:42:42 60° NE 10:45:32 19° ESE
Cosmos 1605 Rocket 4.0 10:37:36 10° N 10:43:51 88° W 10:50:06 10° S
STARLINK-52 3.6 10:41:23 10° SW 10:44:28 36° SSE 10:45:57 23° E
SJ-7 4.3 10:40:54 10° SSE 10:44:58 79° ENE 10:48:59 10° N
BREEZE-M DEB (TANK) 3.7 10:41:31 10° SW 10:45:25 66° SSE 11:00:25 10° ENE
BREEZE-M DEB (TANK) 4.4 10:42:47 10° N 10:46:20 31° ENE 10:53:18 16° ESE
YAOGAN 6 3.7 10:46:10 20° ESE 10:47:35 26° E 10:50:43 10° NNE
Cosmos 2360 Rocket 4.4 10:44:01 10° W 10:48:17 21° SW 10:52:34 10° S
Cosmos 2056 Rocket 3.7 10:43:55 10° S 10:49:06 47° ESE 10:54:09 10° NE
Cosmos 1666 Rocket 3.5 10:45:42 10° N 10:50:03 69° E 10:54:27 10° SSE
FALCON 9 DEB 4.0 10:48:41 10° SW 10:51:54 32° SSE 10:52:53 27° ESE
Cosmos 1633 Rocket 3.1 10:47:38 10° N 10:52:00 59° E 10:56:26 10° SSE
STARLINK-1026 3.6 10:48:29 10° NW 10:52:39 74° NE 10:55:07 24° ESE
STARLINK-50 3.5 10:48:52 10° NW 10:52:56 87° SW 10:55:25 23° SE
H-2A R/B 4.3 10:49:20 10° S 10:52:59 29° WSW 10:56:27 10° NW
NOAA 6 4.1 10:49:53 10° SSE 10:55:06 85° WSW 11:00:15 10° NNW
CZ-2C R/B 4.1 10:58:14 18° SE 10:58:14 18° SE 11:00:49 10° SSE
STARLINK-1013 3.6 10:53:24 10° NW 10:57:35 81° NE 10:59:51 26° SE
Cosmos 1818 3.5 10:52:59 10° NNW 10:58:23 80° ENE 11:02:42 17° SE
STARLINK-1009 3.6 10:58:22 10° NW 11:02:33 88° NE 11:04:39 29° SE
SL-4 R/B 2.7 11:03:06 10° WSW 11:06:47 50° NW 11:10:43 10° NE
STARLINK-1015 3.6 11:03:21 10° NW 11:07:33 85° SW 11:09:26 32° SE
Cosmos 1680 Rocket 4.4 11:03:16 10° NW 11:08:23 49° WSW 11:13:32 10° S
Cosmos 2219 Rocket 3.6 11:06:09 10° NW 11:11:21 36° WSW 11:16:37 10° S
STARLINK-1016 3.7 11:08:20 10° NW 11:12:31 78° SW 11:14:13 35° SE
ATLAS 2AS CENTAUR R/B 3.8 11:07:41 10° SSW 11:12:46 23° SE 11:13:30 22° SE
STARLINK-60 4.3 11:12:28 10° WSW 11:15:33 40° NW 11:17:54 15° NNE
Cosmos 1812 3.7 11:12:06 10° SSW 11:15:54 49° W 11:19:38 10° NNW
STARLINK-81 3.8 11:12:26 10° WNW 11:16:18 58° SW 11:17:38 36° SSE
STARLINK-1008 3.7 11:13:20 10° WNW 11:17:30 71° SW 11:19:00 38° SE
STARLINK-54 4.0 11:13:48 10° WNW 11:17:36 52° SW 11:18:55 35° SSE
STARLINK-77 3.9 11:15:14 10° WNW 11:19:03 55° SW 11:20:16 37° SSE
Cosmos 1452 Rocket 4.3 11:14:43 10° S 11:18:42 30° SE 11:18:42 30° SE
Cosmos 1238 Rocket 3.1 11:15:51 10° NNW 11:20:31 73° W 11:24:03 12° S
Cosmos 2100 Rocket 3.9 11:14:36 10° N 11:20:48 73° E 11:27:00 10° SSE
STARLINK-1014 3.9 11:18:19 10° WNW 11:22:31 65° SW 11:23:50 41° SSE
Cosmos 1420 Rocket 4.2 11:17:31 10° S 11:22:44 48° ESE 11:25:33 25° NE
Helios 1A Rocket 2.8 11:21:53 41° SE 11:23:07 63° ENE 11:27:08 10° N
STARLINK-79 4.0 11:20:06 10° WNW 11:23:54 50° SSW 11:24:54 39° SSE
Cosmos 1461 2.6 11:20:22 10° SSW 11:24:21 88° SE 11:26:03 32° NNE
STARLINK-78 4.1 11:21:36 10° WNW 11:25:21 49° SSW 11:26:17 39° S
Cosmos 1980 4.0 11:20:54 10° NNW 11:26:33 69° WSW 11:31:16 16° SSE
Lacrosse 5 rocket 1.6 11:22:34 10° NNW 11:26:46 57° NE 11:27:19 52° E
STARLINK-57 4.2 11:23:23 10° WNW 11:27:07 45° SSW 11:28:00 38° S
STARLINK-1010 4.1 11:23:00 10° WNW 11:27:13 57° SW 11:28:27 40° SSE
STARLINK-1025 4.0 11:23:21 10° WNW 11:27:30 60° SW 11:28:35 43° SSE
Envisat 3.0 11:22:35 10° SSE 11:27:47 88° WSW 11:32:53 10° NNW
STARLINK-49 4.2 11:24:58 10° WNW 11:28:43 46° SSW 11:29:30 39° S
STARLINK-27 4.2 11:26:23 10° WNW 11:30:06 45° SSW 11:30:48 39° S
STARLINK-74 4.2 11:28:05 10° WNW 11:31:48 44° SSW 11:32:26 39° S
STARLINK-1017 4.1 11:28:19 10° WNW 11:32:26 55° SW 11:33:19 45° S
STARLINK-39 4.2 11:29:39 10° WNW 11:33:20 42° SSW 11:33:54 39° S
Meteor 1-20 Rocket 4.2 11:28:59 10° N 11:34:41 70° E 11:39:06 18° SSE
STARLINK-31 4.3 11:31:16 10° WNW 11:34:55 41° SSW 11:35:26 39° S
STARLINK-69 4.4 11:33:04 10° W 11:36:39 37° SSW 11:37:06 36° SSW
STARLINK-1023 4.2 11:33:20 10° WNW 11:37:24 51° SW 11:38:05 46° S
STARLINK-21 4.4 11:34:32 10° WNW 11:38:09 38° SSW 11:38:30 37° SSW
Cosmos 2061 Rocket 3.9 11:32:06 10° N 11:38:17 63° E 11:43:27 15° SSE
BREEZE-M DEB (TANK) 4.4 11:18:52 10° NW 11:39:00 70° NNE 11:41:08 43° E
Feng Yun 1-1 Rocket 4.1 11:35:57 27° SSE 11:39:03 73° ENE 11:44:32 10° N
Cosmos 1470 Rocket 3.7 11:34:46 10° NNW 11:39:18 76° W 11:42:02 24° S
STARLINK-1007 4.3 11:38:25 10° WNW 11:42:28 47° SSW 11:42:55 45° SSW
STARLINK-29 4.2 11:41:16 10° WSW 11:44:00 43° WNW 11:44:00 43° WNW
Cosmos 371 Rocket 4.4 11:41:10 10° S 11:43:48 30° S 11:43:48 30° S
Cosmos 1441 Rocket 3.4 11:42:48 10° NNW 11:46:40 74° W 11:46:40 74° W
ATLAS 5 CENTAUR R/B 2.9 11:40:16 10° NW 11:47:27 69° SW 11:51:06 29° SSE
STARLINK-1048 4.4 11:43:26 10° WNW 11:47:28 44° SSW 11:47:42 43° SSW
Cosmos 2016 Rocket 3.9 11:41:33 10° N 11:47:48 74° E 11:53:36 13° SSE
Cosmos 1864 Rocket 4.4 11:42:40 10° N 11:48:43 62° E 11:50:34 44° SE
Cosmos 2173 Rocket 4.2 11:43:20 10° NNW 11:49:38 73° W 11:55:54 10° S
SL-24 R/B - RUBIN 2 3.8 11:45:18 10° NW 11:50:25 74° SW 11:51:06 62° S
Cosmos 1862 Rocket 4.5 11:49:08 10° SSW 11:53:33 50° W 11:57:55 10° NNW
